FW5420 Weather Reports


time (UTC)temp
C
wind
direction
speed
KPH
gust
KPH
rain 1hr
cm
rain 24hr
cm
rain mn
cm
humidity
%
barometer
mb
20260504081542 12 222 0.0 6.4 0.00 0.00 0.00 83 1006.8
20260504050022 14 233 0.0 0.0 0.00 0.00 0.00 74 1008.1
20260504044516 15 233 0.0 1.6 0.00 0.00 0.00 72 1008.4
20260504043015 15 233 0.0 0.0 0.00 0.00 0.00 71 1008.4
20260504041524 15 233 0.0 1.6 0.00 0.00 0.00 70 1008.4
20260504040012 16 233 1.6 4.8 0.00 0.00 0.00 70 1008.6
20260504034517 16 241 1.6 3.2 0.00 0.00 0.00 67 1008.6
20260504033014 16 241 0.0 4.8 0.00 0.00 0.00 65 1009.0
20260504031511 17 241 0.0 3.2 0.00 0.00 0.00 62 1008.9
20260504030010 18 248 3.2 6.4 0.00 0.00 0.00 59 1008.9
20260504024510 18 20 3.2 8.0 0.00 0.00 0.00 60 1008.8
20260504023010 17 252 0.0 3.2 0.00 0.00 0.00 62 1009.1
20260504021508 17 252 0.0 6.4 0.00 0.00 0.00 63 1009.1
20260504020010 17 250 1.6 6.4 0.00 0.00 0.00 64 1009.1
20260504014513 18 250 1.6 6.4 0.00 0.00 0.00 64 1009.1
20260504013007 18 257 3.2 4.8 0.00 0.00 0.00 61 1009.0
20260504011506 18 257 0.0 6.4 0.00 0.00 0.00 59 1009.0
20260504010005 19 302 1.6 4.8 0.00 0.00 0.00 58 1008.8
20260504004515 19 252 1.6 6.4 0.00 0.00 0.00 58 1008.4
20260504003004 19 244 3.2 6.4 0.00 0.00 0.00 58 1008.6
20260504001504 20 243 0.0 4.8 0.00 0.00 0.00 57 1008.6
20260504000002 20 243 0.0 3.2 0.00 0.00 0.00 57 1008.9
20260503234502 20 243 0.0 0.0 0.00 0.00 0.00 56 1009.1
20260503233005 20 243 0.0 11.3 0.00 0.00 0.00 54 1008.3
20260503231600 20 265 4.8 12.9 0.00 0.00 0.00 53 1009.0
20260503230103 20 254 8.0 19.3 0.00 0.00 0.00 52 1008.8
20260503224558 21 246 4.8 20.9 0.00 0.00 0.00 52 1009.4
20260503223058 21 256 8.0 17.7 0.00 0.00 0.00 53 1009.2
20260503221601 21 247 6.4 22.5 0.00 0.00 0.00 53 1008.9
20260503220057 21 263 9.7 24.1 0.00 0.00 0.00 51 1008.7
20260503214554 21 270 12.9 25.7 0.00 0.00 0.00 51 1009.0
20260503213052 21 259 8.0 19.3 0.00 0.00 0.00 51 1009.4
20260503211552 21 260 9.7 32.2 0.00 0.00 0.00 52 1009.2
20260503210050 21 232 11.3 25.7 0.00 0.00 0.00 50 1009.2
20260503204546 21 265 11.3 32.2 0.00 0.00 0.00 50 1009.7
20260503203054 21 263 17.7 25.7 0.00 0.00 0.00 50 1010.1
20260503201544 20 219 19.3 30.6 0.00 0.00 0.00 50 1009.6
20260503200038 20 239 12.9 27.4 0.00 0.00 0.00 51 1010.5
20260503194534 19 225 14.5 25.7 0.00 0.00 0.00 50 1010.7
20260503193032 19 218 12.9 27.4 0.00 0.00 0.00 50 1011.0
20260503191534 18 230 19.3 33.8 0.00 0.00 0.00 48 1011.2
20260503190028 18 236 14.5 29.0 0.00 0.00 0.00 48 1011.1
20260503184527 18 232 16.1 32.2 0.00 0.00 0.00 49 1011.5
20260503183025 18 216 11.3 32.2 0.00 0.00 0.00 48 1011.1
20260503181523 18 221 14.5 27.4 0.00 0.00 0.00 47 1012.1
20260503180022 18 223 22.5 38.6 0.00 0.00 0.00 47 1012.0
20260503174522 17 211 19.3 45.1 0.00 0.00 0.00 46 1012.0
20260503173022 17 190 20.9 40.2 0.00 0.00 0.00 46 1012.5
20260503171516 18 239 19.3 38.6 0.00 0.00 0.00 46 1012.6